This is the latest recevied weather packets stored in our database for station/object W0WC. If no packets are shown the sender has not sent any weather packets the latest 10 day(s).
| Time | Temp. | Humidity | Pressure | Rain* | Wind** | Luminosity | Snow |
|---|---|---|---|---|---|---|---|
| 1777945823 | 22.22° C | 58% | 1005.5 hPa | 0 mm | - | 0 W/m² | - |
| 1777945520 | 22.22° C | 57% | 1005.5 hPa | 0 mm | - | 0 W/m² | - |
| 1777945218 | 22.22° C | 57% | 1005.5 hPa | 0 mm | - | 0 W/m² | - |
| 1777944915 | 22.22° C | 57% | 1005.6 hPa | 0 mm | - | 0 W/m² | - |
| 1777944612 | 22.78° C | 58% | 1005.6 hPa | 0 mm | - | 0 W/m² | - |
| 1777944310 | 22.78° C | 57% | 1005.4 hPa | 0 mm | - | 0 W/m² | - |
| 1777944007 | 22.78° C | 57% | 1005.2 hPa | 0 mm | - | 1 W/m² | - |
| 1777943702 | 22.78° C | 57% | 1005.4 hPa | 0 mm | - | 1 W/m² | - |
| 1777943400 | 22.78° C | 56% | 1005.5 hPa | 0 mm | - | 2 W/m² | - |
| 1777943095 | 22.78° C | 55% | 1005.6 hPa | 0 mm | - | 3 W/m² | - |
| 1777942791 | 23.33° C | 55% | 1005.5 hPa | 0 mm | - | 5 W/m² | - |
| 1777942488 | 23.33° C | 54% | 1005.4 hPa | 0 mm | - | 8 W/m² | - |
| 1777942186 | 23.33° C | 54% | 1005.4 hPa | 0 mm | - | 11 W/m² | - |
| 1777941882 | 23.33° C | 54% | 1005.1 hPa | 0 mm | - | 16 W/m² | - |
| 1777941579 | 23.33° C | 54% | 1005.1 hPa | 0 mm | - | 20 W/m² | - |
| 1777941276 | 23.89° C | 54% | 1005.1 hPa | 0 mm | - | 25 W/m² | - |
| 1777940973 | 23.89° C | 53% | 1005.1 hPa | 0 mm | - | 30 W/m² | - |
| 1777940669 | 23.89° C | 53% | 1005.4 hPa | 0 mm | - | 37 W/m² | - |
| 1777940367 | 23.89° C | 52% | 1005.2 hPa | 0 mm | - | 42 W/m² | - |
| 1777940065 | 23.89° C | 52% | 1005.3 hPa | 0 mm | - | 49 W/m² | - |
| 1777939762 | 24.44° C | 52% | 1005.2 hPa | 0 mm | - | 56 W/m² | - |
| 1777939460 | 24.44° C | 51% | 1004.8 hPa | 0 mm | - | 62 W/m² | - |
| 1777939156 | 24.44° C | 51% | 1004.9 hPa | 0 mm | - | 68 W/m² | - |
| 1777938854 | 24.44° C | 50% | 1005 hPa | 0 mm | - | 77 W/m² | - |
| 1777938549 | 24.44° C | 50% | 1005 hPa | 0 mm | - | 89 W/m² | - |
* Rain latest hour (hover to see other rain measurements)
** Current wind speed in m/s (hover to see current wind gust speed)